Regional Weather Roundup
Issued by NWS Austin/San Antonio, TX

Home | Current Version | Previous Version | Text Only | Print | Product List | Glossary On
Versions: 1 2 3 4 5 6 7 8 9 10 11 12 13 14 15 16 17 18 19 20 21 22 23 24 25 26 27 28 29 30 31 32 33 34 35 36 37 38 39 40 41 42 43 44 45 46 47 48 49 50
118
ASUS44 KEWX 261602
RWREWX
SOUTH TEXAS REGIONAL WEATHER ROUNDUP
NATIONAL WEATHER SERVICE AUSTIN/SAN ANTONIO TX
1100 AM CDT FRI MAY 26 2017

NOTE: "FAIR" INDICATED FEW OR NO CLOUDS BELOW 12,000 FEET WITH NO
SIGNIFICANT WEATHER AND/OR OBSTRUCTIONS TO VISIBILITY.

* - THESE STATIONS ARE NOT NWS OR FAA STATIONS...AND ARE NOT SUBJECT
    TO NWS AND FAA QUALITY CONTROL.

TXZ171-172-183>190-261700-
TEXAS HILL COUNTRY AND EDWARDS PLATEAU

CITY           SKY/WX    TMP DP  RH WIND       PRES   REMARKS
JUNCTION       MOSUNNY   83  70  64 SW13G18   29.89R
*LLANO         CLOUDY    81  73  78 S9        29.90R
BURNET         NOT AVBL
*HORSESHOE BAY NOT AVBL
*KERRVILLE     CLOUDY    74  73  96 S7        29.91R FOG
*FREDERICKSBRG CLOUDY    75  71  87 S12       29.90S
*ROCKSPRINGS   MOSUNNY   79  70  73 S8        29.95S
*BOERNE STAGE  CLOUDY    73  72  94 S6        29.91R
*CASTROVILLE   CLOUDY    81  72  74 S8        29.89R
HONDO          CLOUDY    80  74  81 S10       29.88R
*UVALDE        CLOUDY    77  74  90 SE5       29.89R FOG
DEL RIO        CLOUDY    82  74  76 S7        29.86R
LAUGHLIN AFB   NOT AVBL
CARRIZO SPRGS  CLOUDY    82  73  74 SE7       29.84S
*EAGLE PASS    NOT AVBL
$$

TXZ173-191>194-202-209-217>225-228-261700-
CENTRAL AND SOUTH CENTRAL TEXAS

CITY           SKY/WX    TMP DP  RH WIND       PRES   REMARKS
GEORGETOWN     CLOUDY    81  70  69 S15       29.86S
AUSTIN/BERGSTM CLOUDY    81  73  76 S13       29.86S
AUSTIN/MABRY   CLOUDY    80  72  76 VRB5      29.87S
*AUSTIN/EXEC   CLOUDY    79  73  83 S12G17    29.87S
*LAGO VISTA    CLOUDY    79  72  80 S6G18     29.89S
SAN MARCOS     CLOUDY    79  72  78 S15       29.88S
NEW BRAUNFELS  CLOUDY    81  73  76 S14       29.86S
RANDOLPH AFB   CLOUDY    80  76  87 S13       29.87S
PT SAN ANTONIO CLOUDY    81  73  78 S12       29.86R
SAN ANTONIO    CLOUDY    80  72  76 S13       29.88R
STINSON FIELD  CLOUDY    81  73  76 SE7       29.85S
*LA GRANGE     CLOUDY    83  76  77 S16       29.86F HX  91
*GIDDINGS      CLOUDY    80  72  77 S13G20    29.88F
*GONZALES      CLOUDY    83  77  80 S13G21    29.87S HX  92
$$

TXZ163>164-176>182-195>201-210>213-226-227-235-261700-
SOUTHEAST TEXAS

CITY           SKY/WX    TMP DP  RH WIND       PRES   REMARKS
COLLEGE STN    CLOUDY    82  74  76 S16G23    29.88S
*BRYAN         CLOUDY    82  73  75 S12G18    29.89S
*CALDWELL      NOT AVBL
*CROCKETT      CLOUDY    81  73  78 S13       29.91S
*BRENHAM       CLOUDY    83  74  74 S12G21    29.90S
HUNTSVILLE     CLOUDY    81  71  71 S14G21    29.90S
CONROE         CLOUDY    81  72  74 S10       29.91S
HOUSTON BUSH   PTSUNNY   86  73  65 S16G22    29.92R HX  93
HOUSTON HOBBY  PTSUNNY   83  73  72 S14G21    29.91R
*HOUSTON SW AP MOSUNNY   83  73  70 S10G16    29.93R
PEARLAND       PTSUNNY   86  72  62 S17       29.93S HX  92
HOUSTON HOOKS  CLOUDY    82  73  74 S12G18    29.91S
ELLINGTON FLD  PTSUNNY   86  70  58 S15       29.92R HX  90
SUGAR LAND     CLOUDY    86  74  67 S16G22    29.91R HX  94
*HOUSTON EXEC  CLOUDY    82  73  74 S14       29.92S HAZE
*CLEVELAND MUN CLOUDY    81  74  78 SW6       29.93R
*WHARTON       CLOUDY    82  71  67 S13       29.91S
*COLUMBUS      CLOUDY    81  73  76 S10       29.91S
*EAGLE LAKE    CLOUDY    82  76  83 S9        29.90S
$$

TXZ214>216-236>238-261700-
THE UPPER TEXAS COAST

CITY           SKY/WX    TMP DP  RH WIND       PRES   REMARKS
*ORANGE        CLOUDY    81  72  75 SW13G20   29.96F
PORT ARTHUR    PTSUNNY   83  71  67 S15       29.94S
GALVESTON      PTSUNNY   85  76  74 S15       29.94S HX  94
ANGLETON       PTSUNNY   87  75  67 S14       29.92S HX  96
*BAY CITY      CLOUDY    85  74  70 S13       29.92R HX  92
PALACIOS       CLOUDY    81  74  79 S14       29.90R
$$

TXZ229>234-239>247-261700-
TEXAS COASTAL BEND AND RIO GRANDE PLAINS

CITY           SKY/WX    TMP DP  RH WIND       PRES   REMARKS
VICTORIA       CLOUDY    82  74  76 S14       29.89R
*BEEVILLE      CLOUDY    83  76  81 S14       29.87S HX  91
ROCKPORT       CLOUDY    83  75  77 S10       29.87S HX  90
*PORT ARANSAS  CLOUDY    81  76  84 S12G20    29.87S
*PORT LAVACA   CLOUDY    81  77  85 S8        29.90R
*INGLESIDE     CLOUDY    84  76  77 SE17      29.87R HAZE    HX  93
CORPUS CHRISTI CLOUDY    83  77  82 S16G24    29.85S HX  92
CORPUS NAS     CLOUDY    85  78  80 SE18G24   29.85S HX  96
*ROBSTOWN      CLOUDY    83  76  80 SE9       29.86S HX  90
ALICE          CLOUDY    82  74  76 SE9       29.84S
KINGSVILLE NAS CLOUDY    85  77  77 SE12      29.84S HX  95
COTULLA        CLOUDY    85  73  67 S9        29.84S HX  91
*FAITH RANCH   CLOUDY    82  73  74 VRB6      29.85R
LAREDO         CLOUDY    84  74  71 S12       29.84R HX  91
$$

TXZ248>255-261700-
DEEP SOUTH TEXAS

CITY           SKY/WX    TMP DP  RH WIND       PRES   REMARKS
BROWNSVILLE    CLOUDY    89  76  65 S24G32    29.84R HX 100
PORT ISABEL    CLOUDY    87  76  69 S26G32    29.82S HX  97
*SOUTH PADRE   NOT AVBL
HARLINGEN      PTSUNNY   91  77  63 S25G33    29.80S HX 104
*HEBBRONVILLE  CLOUDY    84  71  65 S15G21    29.84S HX  90
MCALLEN        PTSUNNY   93  75  55 SE25G33   29.80S HX 104
*WESLACO       PTSUNNY   91  74  58 S20G32    29.80S HX 100
FALFURRIAS     CLOUDY    87  75  67 S14       29.83S HX  95
EDINBURG       PTSUNNY   93  73  52 S16G26    29.81S HX 101
*ZAPATA        CLOUDY    84  73  67 S7        29.82R HX  90
$$

TXZ213>215-236>238-242>244-246-247-251-254-255-261700-
CMAN STATIONS

STATION/POSITION TIME  TEMP    WIND        PRES    WAVE
                       AIR SEA DIR/SP/G            HT/PER
                 (UTC) (F)     (DEG/KT/KT) (MB)    (FT/S)
SABINE PASS      1524   80 80  190/ 12/ 17 1015.7
SEA RIM ST PARK  1500   80     190/ 13/ 15 1014.7
NORTH JETTY/GLS  1524      79  170/ 12/ 15 1013.2
EAGLE POINT      1524   80 77  210/ 16/ 18 1013.3
MORGANS POINT    1524   80 78  160/  8/ 12 1013.1
MISSION/ARANSAS  1500   81                 1012.0
PORT O`CONNOR    1524   79     160/ 11/ 14 1011.9
PORT ARANSAS     1500   80 79  150/ 15/ 17 1011.3
MALAQUITE BEACH  1524   80 80  140/ 17/ 19 1011.4
BAFFIN BAY       1524   81 79              1010.7
PORT ISABEL      1524   83 81  150/ 21/ 26 1010.1
$$




USA.gov is the U.S. government's official web portal to all federal, state and local government web resources and services.